When you browse on this site, cookies collect data to enhance your experience and personalize the content and advertising you see.
Visit our Privacy Policy to learn more. By continuing to use the site, you agree to this use of cookies and data.
  • In Österreich
  • Länderverzeichnis
  • Für 7 Tage
  • Wassertemperatur
  • Wetterkarte
  • News
  • Widgets
  • user-avatar
    Anmelden

    Stündliche Wetter Osinovica

    Heute, 30 Mai, Samstag

    Zeit Temperatur Niederschläge Wind Luftdruck Luftfeuchtigkeit
    00:00 +11°C° 0 mm 4 m/S 744 mmHg 91%
    01:00 +11°C° 0 mm 4 m/S 744 mmHg 91%
    02:00 +12°C° 0 mm 5 m/S 744 mmHg 91%
    03:00 +12°C° 0 mm 5 m/S 744 mmHg 90%
    04:00 +12°C° 0 mm 5 m/S 744 mmHg 90%
    05:00 +12°C° 0 mm 5 m/S 743 mmHg 90%
    06:00 +13°C° 0 mm 5 m/S 743 mmHg 87%
    07:00 +14°C° 0 mm 5 m/S 743 mmHg 85%
    08:00 +14°C° 0 mm 5 m/S 743 mmHg 82%
    09:00 +14°C° 0 mm 6 m/S 743 mmHg 82%
    10:00 +14°C° 0 mm 6 m/S 743 mmHg 81%
    11:00 +15°C° 0 mm 7 m/S 742 mmHg 81%
    12:00 +14°C° 1.1 mm 7 m/S 742 mmHg 84%
    13:00 +14°C° 1.1 mm 7 m/S 742 mmHg 88%
    14:00 +14°C° 1.1 mm 7 m/S 742 mmHg 92%
    15:00 +14°C° 0.4 mm 7 m/S 741 mmHg 91%
    16:00 +14°C° 0.4 mm 7 m/S 741 mmHg 90%
    17:00 +14°C° 0.4 mm 6 m/S 740 mmHg 90%
    18:00 +14°C° 0 mm 7 m/S 740 mmHg 85%
    19:00 +15°C° 0 mm 7 m/S 740 mmHg 81%
    20:00 +15°C° 0 mm 7 m/S 741 mmHg 76%
    21:00 +14°C° 0.2 mm 7 m/S 740 mmHg 78%
    22:00 +14°C° 0.2 mm 7 m/S 740 mmHg 79%
    23:00 +14°C° 0.2 mm 7 m/S 740 mmHg 81%

    Morgen, 31 Mai, Sonntag

    Zeit Temperatur Niederschläge Wind Luftdruck Luftfeuchtigkeit
    00:00 +12°C° 1.1 mm 7 m/S 740 mmHg 83%
    01:00 +12°C° 1.1 mm 7 m/S 740 mmHg 86%
    02:00 +11°C° 1.1 mm 7 m/S 741 mmHg 88%
    03:00 +11°C° 1.8 mm 7 m/S 741 mmHg 89%
    04:00 +11°C° 1.8 mm 7 m/S 741 mmHg 90%
    05:00 +10°C° 1.8 mm 7 m/S 741 mmHg 90%
    06:00 +10°C° 0.5 mm 7 m/S 741 mmHg 87%
    07:00 +10°C° 0.5 mm 7 m/S 741 mmHg 83%
    08:00 +11°C° 0.5 mm 7 m/S 742 mmHg 80%
    09:00 +12°C° 0 mm 7 m/S 742 mmHg 72%
    10:00 +14°C° 0 mm 7 m/S 743 mmHg 65%
    11:00 +16°C° 0 mm 7 m/S 743 mmHg 57%
    12:00 +16°C° 0 mm 6 m/S 743 mmHg 56%
    13:00 +16°C° 0 mm 6 m/S 743 mmHg 56%
    14:00 +16°C° 0 mm 6 m/S 743 mmHg 55%
    15:00 +15°C° 0 mm 5 m/S 744 mmHg 57%
    16:00 +15°C° 0 mm 5 m/S 744 mmHg 58%
    17:00 +14°C° 0 mm 5 m/S 744 mmHg 60%
    18:00 +13°C° 0 mm 5 m/S 744 mmHg 61%
    19:00 +12°C° 0 mm 4 m/S 745 mmHg 63%
    20:00 +11°C° 0 mm 4 m/S 745 mmHg 65%
    21:00 +10°C° 0 mm 4 m/S 745 mmHg 66%
    22:00 +8°C° 0 mm 4 m/S 746 mmHg 67%
    23:00 +7°C° 0 mm 4 m/S 746 mmHg 68%

    übermorgen, 1 Juni, Montag

    Zeit Temperatur Niederschläge Wind Luftdruck Luftfeuchtigkeit
    00:00 +6°C° 0 mm 4 m/S 746 mmHg 70%
    01:00 +5°C° 0 mm 4 m/S 746 mmHg 71%
    02:00 +5°C° 0 mm 4 m/S 746 mmHg 73%
    03:00 +5°C° 0 mm 4 m/S 746 mmHg 73%
    04:00 +5°C° 0 mm 4 m/S 746 mmHg 73%
    05:00 +5°C° 0 mm 4 m/S 746 mmHg 73%
    06:00 +6°C° 0 mm 5 m/S 747 mmHg 68%
    07:00 +7°C° 0 mm 5 m/S 747 mmHg 62%
    08:00 +9°C° 0 mm 5 m/S 747 mmHg 57%
    09:00 +10°C° 0 mm 5 m/S 747 mmHg 54%
    10:00 +12°C° 0 mm 5 m/S 747 mmHg 51%
    11:00 +13°C° 0 mm 5 m/S 746 mmHg 48%
    12:00 +13°C° 0 mm 5 m/S 746 mmHg 49%
    13:00 +13°C° 0 mm 5 m/S 746 mmHg 50%
    14:00 +13°C° 0 mm 5 m/S 746 mmHg 50%
    15:00 +13°C° 0.2 mm 5 m/S 746 mmHg 55%
    16:00 +12°C° 0.2 mm 5 m/S 746 mmHg 60%
    17:00 +12°C° 0.2 mm 4 m/S 746 mmHg 65%
    18:00 +11°C° 0.1 mm 4 m/S 746 mmHg 70%
    19:00 +10°C° 0.1 mm 3 m/S 746 mmHg 76%
    20:00 +8°C° 0.1 mm 3 m/S 746 mmHg 81%
    21:00 +8°C° 0 mm 3 m/S 746 mmHg 81%
    22:00 +7°C° 0 mm 3 m/S 746 mmHg 82%
    23:00 +6°C° 0 mm 4 m/S 747 mmHg 83%

    2 Juni, Dienstag

    Zeit Temperatur Niederschläge Wind Luftdruck Luftfeuchtigkeit
    00:00 +6°C° 0 mm 4 m/S 746 mmHg 84%
    01:00 +6°C° 0 mm 4 m/S 746 mmHg 85%
    02:00 +6°C° 0 mm 4 m/S 746 mmHg 86%
    03:00 +6°C° 0 mm 4 m/S 746 mmHg 84%
    04:00 +6°C° 0 mm 5 m/S 746 mmHg 83%
    05:00 +7°C° 0 mm 5 m/S 746 mmHg 82%
    06:00 +8°C° 0 mm 5 m/S 746 mmHg 74%
    07:00 +10°C° 0 mm 6 m/S 746 mmHg 67%
    08:00 +13°C° 0 mm 6 m/S 746 mmHg 59%
    09:00 +14°C° 0 mm 6 m/S 746 mmHg 55%
    10:00 +15°C° 0 mm 6 m/S 746 mmHg 51%
    11:00 +16°C° 0 mm 6 m/S 746 mmHg 48%
    12:00 +16°C° 0 mm 6 m/S 746 mmHg 47%
    13:00 +17°C° 0 mm 6 m/S 745 mmHg 46%
    14:00 +17°C° 0 mm 6 m/S 745 mmHg 45%
    15:00 +16°C° 0 mm 5 m/S 745 mmHg 48%
    16:00 +16°C° 0 mm 5 m/S 745 mmHg 50%
    17:00 +15°C° 0 mm 5 m/S 744 mmHg 53%
    18:00 +14°C° 0 mm 4 m/S 744 mmHg 58%
    19:00 +13°C° 0 mm 4 m/S 744 mmHg 64%
    20:00 +11°C° 0 mm 3 m/S 744 mmHg 69%
    21:00 +11°C° 0 mm 3 m/S 744 mmHg 71%
    22:00 +10°C° 0 mm 3 m/S 744 mmHg 72%
    23:00 +10°C° 0 mm 3 m/S 744 mmHg 74%

    3 Juni, Mittwoch

    Zeit Temperatur Niederschläge Wind Luftdruck Luftfeuchtigkeit
    00:00 +10°C° 0 mm 3 m/S 744 mmHg 77%
    01:00 +10°C° 0 mm 4 m/S 743 mmHg 80%
    02:00 +8°C° 0 mm 4 m/S 743 mmHg 83%
    03:00 +8°C° 0.1 mm 4 m/S 743 mmHg 83%
    04:00 +8°C° 0.1 mm 4 m/S 743 mmHg 83%
    05:00 +8°C° 0.1 mm 4 m/S 743 mmHg 83%
    06:00 +9°C° 0.1 mm 5 m/S 743 mmHg 83%
    07:00 +9°C° 0.1 mm 5 m/S 743 mmHg 83%
    08:00 +9°C° 0.1 mm 5 m/S 743 mmHg 83%
    09:00 +9°C° 0.1 mm 5 m/S 743 mmHg 82%
    10:00 +10°C° 0.1 mm 5 m/S 743 mmHg 82%
    11:00 +10°C° 0.1 mm 5 m/S 743 mmHg 81%
    12:00 +10°C° 0 mm 5 m/S 744 mmHg 82%
    13:00 +12°C° 0 mm 4 m/S 744 mmHg 83%
    14:00 +12°C° 0 mm 4 m/S 744 mmHg 83%
    15:00 +12°C° 0 mm 4 m/S 744 mmHg 82%
    16:00 +13°C° 0 mm 4 m/S 744 mmHg 80%
    17:00 +13°C° 0 mm 4 m/S 744 mmHg 78%
    18:00 +13°C° 0 mm 3 m/S 744 mmHg 81%
    19:00 +12°C° 0 mm 3 m/S 744 mmHg 83%
    20:00 +13°C° 0 mm 2 m/S 744 mmHg 86%
    21:00 +12°C° 0 mm 2 m/S 744 mmHg 88%
    22:00 +12°C° 0 mm 2 m/S 744 mmHg 90%
    23:00 +10°C° 0 mm 2 m/S 744 mmHg 93%

    4 Juni, Donnerstag

    Zeit Temperatur Niederschläge Wind Luftdruck Luftfeuchtigkeit
    00:00 +10°C° 0 mm 2 m/S 744 mmHg 94%
    01:00 +9°C° 0 mm 2 m/S 744 mmHg 96%
    02:00 +9°C° 0 mm 2 m/S 744 mmHg 97%
    03:00 +9°C° 0.1 mm 2 m/S 743 mmHg 96%
    04:00 +10°C° 0.1 mm 2 m/S 743 mmHg 95%
    05:00 +10°C° 0.1 mm 3 m/S 743 mmHg 94%
    06:00 +10°C° 0.3 mm 3 m/S 743 mmHg 93%
    07:00 +11°C° 0.3 mm 3 m/S 743 mmHg 92%
    08:00 +11°C° 0.3 mm 3 m/S 743 mmHg 90%
    09:00 +12°C° 0.2 mm 3 m/S 743 mmHg 90%
    10:00 +12°C° 0.2 mm 3 m/S 743 mmHg 90%
    11:00 +13°C° 0.2 mm 3 m/S 743 mmHg 89%
    12:00 +14°C° 0.1 mm 3 m/S 743 mmHg 87%
    13:00 +14°C° 0.1 mm 3 m/S 742 mmHg 85%
    14:00 +16°C° 0.1 mm 3 m/S 742 mmHg 83%
    15:00 +16°C° 0.1 mm 3 m/S 742 mmHg 83%
    16:00 +16°C° 0.1 mm 3 m/S 742 mmHg 83%
    17:00 +17°C° 0.1 mm 3 m/S 741 mmHg 83%
    18:00 +16°C° 0.1 mm 3 m/S 741 mmHg 88%
    19:00 +15°C° 0.1 mm 2 m/S 741 mmHg 92%
    20:00 +14°C° 0.1 mm 2 m/S 740 mmHg 96%
    21:00 +14°C° 0 mm 2 m/S 740 mmHg 97%
    22:00 +14°C° 0 mm 2 m/S 740 mmHg 97%
    23:00 +13°C° 0 mm 2 m/S 740 mmHg 98%
    Mehr zeigen